sat.trackr.live / text

‹ back to catalog

STARLINK-5760

NORAD 55591 · 2023-020Y

PAYLOAD ACTIVE UNKNOWN

§ Identity

Operator
Country
US
Launch date
2023-02-12
Launch site
AFETR
Launch vehicle
Mass (kg)
RCS (m²)

Purposes: comms

External: N2YO · Heavens-Above · Gunter

§ Orbital elements

Epoch: 2026-09-20T22:44:44.462976Z

Period
94.27 min
Inclination
43.0062°
Eccentricity
0.0002135
Mean motion
15.27577650 rev/d
Perigee alt
481.6 km
Apogee alt
484.5 km
Semi-major
6,861.2 km
B*
2.0767e-5
RAAN
342.6050°
Arg perigee
294.7969°
Mean anomaly
65.2660°
Rev number
19,877

§ Raw data

STARLINK-57601 55591U 23020Y   26263.94773684  .00000309  00000+0  20767-4 0  99962 55591  43.0062 342.6050 0002135 294.7969  65.2660 15.27577650198771

JSON: /api/v1/satellites/55591 · /tle

For live sub-satellite position, see the globe view (requires WebGL).

§ Visibility from observer

Set your observer location to see the next 7 days of passes ≥ 10°. The values pass through the URL so the page stays shareable.

No JS? Fill the form by hand. The geolocation button needs JavaScript.